Powrót do katalogu

CZ-6A DEB

AktywnySSO
NORAD 54540·DEBRIS·🇨🇳 China

Wystrzelony Nov 11, 2022 z Taiyuan Satellite Launch Center

Loading…

Następne Przeloty (najbliższe 24 godziny)

TLE

ŚwieżeSource: Space-Track

Epoka: Sep 13, 2026, 23:08 UTC

1 54540U 22151KQ  26256.96406647  .00000569  00000-0  29281-3 0  9997
2 54540  98.7824 263.9817 0052591  97.0028 263.7133 14.18383471198218

Śledź CZ-6A DEB w czasie rzeczywistym z AllMySat

Download on the App Store